GOES 13                 
1 29155U 06018A   19261.50856590  .00000125  00000-0  00000+0 0  9991
2 29155   0.0386  24.5980 0008274 218.8826 152.6523  0.99981742 48819
DELTA 4 R/B             
1 29156U 06018B   19260.51854949 -.00000166  00000-0  00000-0 0  9995
2 29156  11.6130 195.1208 5206891 199.9330 122.5105  1.93076544 93926